Tracking 25378 objects as of 22-Jan-2022
HD Live streaming from Space Station
objects crossing your sky now

STARLINK-1709

Track STARLINK-1709 now!
10-day predictions
STARLINK-1709 is classified as:


NORAD ID: 46561
Int'l Code: 2020-070AF
Perigee: 553.6 km
Apogee: 555.2 km
Inclination: 53.1 °
Period: 95.6 minutes
Semi major axis: 6925 km
RCS: Unknown
Launch date: October 6, 2020
Source: United States (US)
Launch site: AIR FORCE EASTERN TEST RANGE (AFETR)
aabbcc
Your satellite tracking list
Your tracking list is empty




NASA's NSSDC Master Catalog

Two Line Element Set (TLE):
1 46561U 20070AF  22021.49646536 -.00000373  00000-0 -61548-5 0  9995
2 46561  53.0555  92.1705 0001150  92.4495 267.6625 15.06387401 72391
Source of the keplerian elements: AFSPC